Latest Coastal Weather Observations for Esperance Harbour

IDW60701

Issued at 2:33 am WST Thursday 27 July 2017 (issued every 10 minutes, with the page automatically refreshed every 10 minutes)

About coastal observations | Map of coastal stations | Coastal observations for WA | Marine services | Other Formats
Station Details ID: 109504 Name: ESPERANCE NTC AWS Lat: -33.87 Lon: 121.90 Height: 0.0 m
Data from the previous 72 hours. | See also: Recent months for locations in Western Australia
Date/Time
WST
Temp
°C
Wind Pressure Rain since
9am
mm
Weather Cloud Vis
km
Sea
Height
m
Swell
Dir  Spd
kts
Gust
kts
hPa Trend Height
m
Period
s
Dir
27/02:30am 10.2 - - - 1018.9 - - - - - - - - -
27/02:00am 10.6 - - - 1018.8 - - - - - - - - -
27/01:30am 10.7 - - - 1018.9 - - - - - - - - -
27/01:00am 11.1 - - - 1018.9 - - - - - - - - -
27/12:30am 11.4 - - - 1018.8 - - - - - - - - -
27/12:00am 11.9 - - - 1019.0 - - - - - - - - -
 
Date/Time
WST
Temp
°C
Wind Pressure Rain since
9am
mm
Weather Cloud Vis
km
Sea
Height
m
Swell
Dir  Spd
kts
Gust
kts
hPa Trend Height
m
Period
s
Dir
26/11:30pm 12.3 - - - 1019.1 - - - - - - - - -
26/11:00pm 12.7 - - - 1019.0 - - - - - - - - -
26/10:30pm 13.5 - - - 1018.6 - - - - - - - - -
26/10:00pm 14.2 - - - 1018.2 - - - - - - - - -
26/09:30pm 14.4 - - - 1018.2 - - - - - - - - -
26/09:00pm 15.3 - - - 1017.9 - - - - - - - - -
26/08:30pm 15.8 - - - 1017.6 - - - - - - - - -
26/08:00pm 15.7 - - - 1017.3 - - - - - - - - -
26/07:30pm 15.9 - - - 1017.0 - - - - - - - - -
26/07:00pm 15.6 - - - 1016.7 - - - - - - - - -
26/06:30pm 16.0 - - - 1016.3 - - - - - - - - -
26/06:00pm 15.8 - - - 1015.8 - - - - - - - - -
26/05:30pm 16.7 - - - 1014.5 - - - - - - - - -
26/05:00pm 17.5 - - - 1013.8 - - - - - - - - -
26/04:30pm 18.6 - - - 1013.3 - - - - - - - - -
26/04:00pm 20.4 - - - 1012.5 - - - - - - - - -
26/03:30pm 20.6 - - - 1012.7 - - - - - - - - -
26/03:00pm 20.6 - - - 1012.5 - - - - - - - - -
26/02:30pm 20.7 - - - 1012.5 - - - - - - - - -
26/02:00pm 20.5 - - - 1012.3 - - - - - - - - -
26/01:30pm 19.9 - - - 1012.5 - - - - - - - - -
26/01:00pm 19.6 - - - 1013.0 - - - - - - - - -
26/12:30pm 19.4 - - - 1013.3 - - - - - - - - -
26/12:00pm 18.9 - - - 1013.7 - - - - - - - - -
26/11:30am 18.1 - - - 1014.5 - - - - - - - - -
26/11:00am 17.3 - - - 1015.1 - - - - - - - - -
26/10:30am 16.8 - - - 1015.7 - - - - - - - - -
26/10:00am 15.8 - - - 1016.0 - - - - - - - - -
26/09:30am 14.5 - - - 1016.2 - - - - - - - - -
26/09:00am 13.5 - - - 1016.3 - - - - - - - - -
26/08:30am 12.5 - - - 1016.2 - - - - - - - - -
26/08:00am 11.7 - - - 1016.2 - - - - - - - - -
26/07:30am 9.8 - - - 1016.4 - - - - - - - - -
26/07:00am 9.1 - - - 1016.5 - - - - - - - - -
26/06:30am 8.6 - - - 1016.5 - - - - - - - - -
26/06:00am 8.6 - - - 1016.6 - - - - - - - - -
26/05:30am 8.9 - - - 1016.5 - - - - - - - - -
26/05:00am 8.8 - - - 1016.6 - - - - - - - - -
26/04:30am 8.9 - - - 1016.7 - - - - - - - - -
26/04:00am 9.1 - - - 1016.6 - - - - - - - - -
26/03:30am 8.7 - - - 1016.9 - - - - - - - - -
26/03:00am 8.5 - - - 1016.8 - - - - - - - - -
26/02:30am 10.2 - - - 1017.0 - - - - - - - - -
26/02:00am 10.3 - - - 1017.3 - - - - - - - - -
26/01:30am 10.4 - - - 1017.8 - - - - - - - - -
26/01:00am 10.5 - - - 1018.0 - - - - - - - - -
26/12:30am 11.3 - - - 1017.7 - - - - - - - - -
26/12:00am 11.4 - - - 1017.9 - - - - - - - - -
 
Date/Time
WST
Temp
°C
Wind Pressure Rain since
9am
mm
Weather Cloud Vis
km
Sea
Height
m
Swell
Dir  Spd
kts
Gust
kts
hPa Trend Height
m
Period
s
Dir
25/11:30pm 11.4 - - - 1018.3 - - - - - - - - -
25/11:00pm 11.9 - - - 1018.8 - - - - - - - - -
25/10:30pm 12.7 - - - 1019.3 - - - - - - - - -
25/10:00pm 12.6 - - - 1019.4 - - - - - - - - -
25/09:30pm 13.2 - - - 1019.0 - - - - - - - - -
25/09:00pm 13.5 - - - 1019.4 - - - - - - - - -
25/08:30pm 14.5 - - - 1019.5 - - - - - - - - -
25/08:00pm 16.2 - - - 1019.6 - - - - - - - - -
25/07:30pm 15.5 - - - 1019.7 - - - - - - - - -
25/07:00pm 15.3 - - - 1019.8 - - - - - - - - -
25/06:30pm 15.7 - - - 1019.8 - - - - - - - - -
25/06:00pm 16.0 - - - 1019.6 - - - - - - - - -
25/05:30pm 16.3 - - - 1019.3 - - - - - - - - -
25/05:00pm 16.4 - - - 1019.3 - - - - - - - - -
25/04:30pm 16.6 - - - 1019.3 - - - - - - - - -
25/04:00pm 17.0 - - - 1019.3 - - - - - - - - -
25/03:30pm 17.6 - - - 1019.0 - - - - - - - - -
25/03:00pm 17.2 - - - 1018.7 - - - - - - - - -
25/02:30pm 17.2 - - - 1019.3 - - - - - - - - -
25/02:00pm 16.9 - - - 1019.1 - - - - - - - - -
25/01:30pm 17.2 - - - 1018.9 - - - - - - - - -
25/01:00pm 16.9 - - - 1019.2 - - - - - - - - -
25/12:30pm 16.7 - - - 1019.9 - - - - - - - - -
25/12:00pm 16.6 - - - 1020.5 - - - - - - - - -
25/11:30am 15.5 - - - 1020.7 - - - - - - - - -
25/11:00am 14.8 - - - 1021.1 - - - - - - - - -
25/10:30am 13.9 - - - 1021.4 - - - - - - - - -
25/10:00am 12.9 - - - 1021.4 - - - - - - - - -
25/09:30am 11.8 - - - 1021.3 - - - - - - - - -
25/09:00am 10.4 - - - 1021.3 - - - - - - - - -
25/08:30am 9.4 - - - 1021.0 - - - - - - - - -
25/08:00am 8.8 - - - 1020.7 - - - - - - - - -
25/07:30am 8.3 - - - 1020.3 - - - - - - - - -
25/07:00am 8.2 - - - 1020.2 - - - - - - - - -
25/06:30am 8.1 - - - 1019.6 - - - - - - - - -
25/06:00am 8.4 - - - 1019.6 - - - - - - - - -
25/05:30am 8.5 - - - 1019.5 - - - - - - - - -
25/05:00am 8.4 - - - 1019.6 - - - - - - - - -
25/04:30am 8.4 - - - 1019.2 - - - - - - - - -
25/04:00am 8.6 - - - 1019.1 - - - - - - - - -
25/03:30am 8.7 - - - 1019.0 - - - - - - - - -
25/03:00am 8.9 - - - 1018.8 - - - - - - - - -
25/02:30am 9.4 - - - 1018.7 - - - - - - - - -
25/02:00am 9.8 - - - 1018.3 - - - - - - - - -
25/01:30am 9.9 - - - 1018.5 - - - - - - - - -
25/01:00am 10.2 - - - 1018.4 - - - - - - - - -
25/12:30am 10.4 - - - 1018.3 - - - - - - - - -
25/12:00am 10.4 - - - 1018.3 - - - - - - - - -
 
Date/Time
WST
Temp
°C
Wind Pressure Rain since
9am
mm
Weather Cloud Vis
km
Sea
Height
m
Swell
Dir  Spd
kts
Gust
kts
hPa Trend Height
m
Period
s
Dir
24/11:30pm 10.6 - - - 1018.3 - - - - - - - - -
24/11:00pm 9.8 - - - 1018.4 - - - - - - - - -
24/10:30pm 10.1 - - - 1018.4 - - - - - - - - -
24/10:00pm 10.1 - - - 1018.4 - - - - - - - - -
24/09:30pm 9.8 - - - 1018.2 - - - - - - - - -
24/09:00pm 10.3 - - - 1018.1 - - - - - - - - -
24/08:30pm 11.0 - - - 1018.1 - - - - - - - - -
24/08:00pm 11.6 - - - 1018.0 - - - - - - - - -
24/07:30pm 12.4 - - - 1018.0 - - - - - - - - -
24/07:00pm 13.0 - - - 1017.9 - - - - - - - - -
24/06:30pm 13.3 - - - 1017.7 - - - - - - - - -
24/06:00pm 13.9 - - - 1017.4 - - - - - - - - -
24/05:30pm 14.5 - - - 1017.0 - - - - - - - - -
24/05:00pm 15.3 - - - 1016.7 - - - - - - - - -
24/04:30pm 15.7 - - - 1016.6 - - - - - - - - -
24/04:00pm 16.2 - - - 1016.3 - - - - - - - - -
24/03:30pm 16.2 - - - 1016.0 - - - - - - - - -
24/03:00pm 16.4 - - - 1015.9 - - - - - - - - -
24/02:30pm 16.4 - - - 1015.7 - - - - - - - - -
24/02:00pm 16.1 - - - 1015.7 - - - - - - - - -
24/01:30pm 16.3 - - - 1015.7 - - - - - - - - -
24/01:00pm 16.1 - - - 1015.7 - - - - - - - - -
24/12:30pm 16.0 - - - 1016.1 - - - - - - - - -
24/12:00pm 15.6 - - - 1016.4 - - - - - - - - -
24/11:30am 15.3 - - - 1016.6 - - - - - - - - -
24/11:00am 15.1 - - - 1017.1 - - - - - - - - -
24/10:30am 14.8 - - - 1017.4 - - - - - - - - -
24/10:00am 13.7 - - - 1017.5 - - - - - - - - -
24/09:30am 13.0 - - - 1017.3 - - - - - - - - -
24/09:00am 11.8 - - - 1017.3 - - - - - - - - -
24/08:30am 11.0 - - - 1017.2 - - - - - - - - -
24/08:00am 10.1 - - - 1016.8 - - - - - - - - -
24/07:30am 9.8 - - - 1016.7 - - - - - - - - -
24/07:00am 9.3 - - - 1016.5 - - - - - - - - -
24/06:30am 9.4 - - - 1016.1 - - - - - - - - -
24/06:00am 9.6 - - - 1015.8 - - - - - - - - -
24/05:30am 10.2 - - - 1015.4 - - - - - - - - -
24/05:00am 10.2 - - - 1015.2 - - - - - - - - -
24/04:30am 10.4 - - - 1015.0 - - - - - - - - -
24/04:00am 10.6 - - - 1014.7 - - - - - - - - -
24/03:30am 11.0 - - - 1014.7 - - - - - - - - -
24/03:00am 11.4 - - - 1014.7 - - - - - - - - -

Other Formats:

Comma delimited format used in spreadsheet applications
http://www.bom.gov.au/fwo/IDW60701/IDW60701.95648.axf

JavaScript Object Notation format (JSON) in row-major order
http://www.bom.gov.au/fwo/IDW60701/IDW60701.95648.json